Home   Weather   Nablus   Past weeks

Flag for Palestinian Territories Past Weather in Nablus, West Bank, Palestinian Territories — Yesterday and Last 2 Weeks

75 °F


Feels Like: 78 °F
Forecast: 58 / 74 °F
Wind: 5 mph from Northeast

Location: Ben Gurion International Airport

Current Time: Oct 22, 2016 at 10:00:48 AM

Latest Report: Oct 22, 2016 at 9:20 AM

Visibility: 10 mi

Pressure: 30.01 "Hg (28.22 "Hg at 534m altitude)

Humidity: 57%

Dew Point: 59 °F

Location of NablusLocation

Past Weather in Nablus — Graph


Nablus Temperature Yesterday

Maximum temperature yesterday: 81 °F (at 11:50 AM)
Minimum temperature yesterday: 64 °F (at 6:20 AM)
Average temperature yesterday: 73 °F

High & Low Weather Summary for the Past Weeks

High91 °F (Oct 13, 11:50 AM)89% (Oct 14, 11:50 PM)30.07 "Hg (Oct 14, 11:50 PM)
Low63 °F (Oct 16, 6:50 AM)22% (Oct 14, 10:50 AM)29.86 "Hg (Oct 16, 2:20 PM)
Average76 °F62%29.96 "Hg
* Reported Oct 7 8:20 AM — Oct 22 8:50 AM, Nablus, Weather by CustomWeather, © 2016

Note: Actual official high and low records may vary slightly from our data, if they occured in-between our weather recording intervals... More about our weather records


Nablus Weather History for the Previous 24 Hours

Scroll right to see more
Time TempWeatherWind HumidityBarometerVisibility
8:50 AM
Sat, Oct 22
73 °FSunny.1 mph61%30.01 "Hg10 mi
8:20 AM70 °FSunny.2 mph69%30.01 "Hg10 mi
7:50 AM66 °FSunny.No wind78%30.01 "Hg10 mi
7:20 AM66 °FSunny.1 mph73%29.98 "Hg10 mi
6:50 AM64 °FSunny.3 mph78%29.98 "Hg10 mi
6:20 AM68 °FClear.3 mph73%29.98 "Hg10 mi
5:50 AM68 °FClear.2 mph73%29.98 "Hg10 mi
5:20 AM68 °FClear.3 mph78%29.98 "Hg10 mi
4:50 AM66 °FClear.3 mph78%29.98 "Hg10 mi
4:20 AM66 °FClear.2 mph78%29.98 "Hg10 mi
3:50 AM66 °FClear.2 mph78%29.98 "Hg10 mi
3:20 AM68 °FClear.3 mph78%29.98 "Hg10 mi
2:50 AM68 °FClear.1 mph78%29.98 "Hg10 mi
2:20 AM68 °FClear.3 mph78%29.98 "Hg10 mi
1:50 AM68 °FClear.2 mph83%29.98 "Hg10 mi
1:20 AM68 °FClear.1 mph73%29.98 "Hg10 mi
12:50 AM70 °FClear.2 mph73%29.98 "Hg10 mi
12:20 AM70 °FClear.3 mph73%29.98 "Hg10 mi
11:50 PM
Fri, Oct 21
72 °FClear.2 mph69%29.98 "Hg10 mi
11:20 PM72 °FClear.1 mph73%29.98 "Hg10 mi
10:50 PM73 °FClear.3 mph69%29.98 "Hg10 mi
10:20 PM73 °FClear.2 mph69%29.98 "Hg10 mi
9:50 PM73 °FClear.2 mph69%29.98 "Hg10 mi
9:20 PM75 °FClear.2 mph65%29.98 "Hg10 mi
8:50 PM75 °FClear.2 mph65%29.98 "Hg10 mi
8:20 PM75 °FClear.5 mph65%29.98 "Hg10 mi
7:50 PM75 °FClear.6 mph65%29.95 "Hg10 mi
7:20 PM75 °FClear.8 mph69%29.95 "Hg10 mi
6:50 PM77 °FClear.9 mph65%29.92 "Hg10 mi
6:20 PM77 °FClear.10 mph65%29.92 "Hg10 mi
5:50 PM77 °FSunny.12 mph65%29.92 "Hg10 mi
5:20 PM79 °FSunny.13 mph61%29.92 "Hg10 mi
4:50 PM79 °FSunny.13 mph58%29.89 "Hg10 mi
4:20 PM79 °FSunny.14 mph58%29.92 "Hg10 mi
3:50 PM79 °FSunny.14 mph61%29.92 "Hg10 mi
3:20 PM81 °FSunny.15 mph54%29.92 "Hg10 mi
2:50 PM81 °FSunny.16 mph54%29.92 "Hg10 mi
2:20 PM81 °FSunny.15 mph54%29.92 "Hg10 mi
1:50 PM81 °FSunny.16 mph54%29.92 "Hg10 mi
1:20 PM81 °FSunny.14 mph51%29.92 "Hg10 mi
12:50 PM81 °FSunny.13 mph51%29.92 "Hg10 mi
12:20 PM81 °FSunny.12 mph51%29.92 "Hg10 mi
11:50 AM81 °FSunny.8 mph48%29.95 "Hg10 mi
11:20 AM79 °FSunny.7 mph51%29.95 "Hg10 mi
10:50 AM79 °FSunny.10 mph51%29.95 "Hg10 mi
10:20 AM77 °FSunny.7 mph54%29.95 "Hg10 mi
Weather by CustomWeather, © 2016

See weather overviewHow to use our weather pages